Lapse_Rate
5.7 5.7 5.7 5.6 5.6 5.4 5.2 5.1 5.2 5.4 5.3 5.3 5.2 5.1 4.9 4.5 4.3 4.4 4.6 4.5 4.5 4.7 4.5 4.5 4.9 4.9 4.9 4.7 5.2 5.4 5.5 5.3 5.2 5.4 5.6 6.2 6.3 6.5 6.6 6.6 6.9 7.2 7.4 7.4 7.8 7.8 6.9 7.6 7.9 8.1 8.3 8.2 7.8 7.9
5.8 5.7 5.6 5.5 5.4 5.2 5.0 4.9 5.2 5.2 5.2 5.1 4.8 4.8 4.9 4.6 4.3 4.2 4.1 4.3 4.8 5.0 4.7 4.8 5.0 5.1 5.1 5.2 5.4 5.1 5.0 5.0 5.2 5.4 5.4 5.7 6.1 6.4 6.3 6.5 6.5 6.7 6.7 7.1 7.3 7.7 7.7 7.9 7.8 7.9 8.0 8.2 7.7 7.7
5.6 5.5 5.4 5.3 5.2 5.0 5.0 5.1 5.2 5.1 4.9 4.7 4.6 4.4 4.5 4.5 4.4 4.2 4.4 4.5 4.6 5.1 5.0 4.9 5.1 5.2 5.3 5.1 5.3 5.5 5.0 5.2 5.4 5.2 5.6 5.8 6.4 6.5 6.4 6.3 6.2 5.9 5.7 6.2 7.0 7.7 7.5 7.3 7.5 7.6 7.8 7.8 7.9 8.1
5.5 5.4 5.4 5.2 5.1 5.0 5.1 5.2 5.1 4.9 4.6 4.4 4.3 4.3 4.3 4.4 4.5 4.4 4.4 4.7 4.9 5.3 5.4 4.9 5.4 5.3 5.5 5.6 5.7 5.6 5.4 5.4 5.4 5.4 5.5 6.3 6.6 6.7 6.4 6.2 6.3 6.0 4.9 5.8 6.5 6.9 7.1 7.2 7.3 7.3 7.3 7.7 7.7 7.6
5.4 5.3 5.2 5.1 5.1 5.1 5.1 5.0 4.9 4.7 4.7 4.4 4.3 4.4 4.4 4.3 4.3 4.4 4.5 4.7 5.0 5.1 5.4 5.6 5.3 5.4 5.3 5.4 5.7 5.8 5.9 5.9 5.9 5.9 6.3 6.6 6.5 6.4 6.4 6.3 6.3 6.3 6.0 6.0 6.4 6.6 7.0 7.3 7.0 7.3 7.3 7.7 7.6 7.5
5.3 5.2 5.1 5.1 5.1 5.2 5.0 4.8 4.7 4.6 4.6 4.5 4.5 4.5 4.5 4.3 4.4 4.4 4.8 5.0 5.0 5.2 5.5 5.8 5.4 5.3 5.5 5.7 5.8 5.9 6.1 6.3 6.2 6.5 6.7 6.8 6.8 6.4 6.2 6.4 6.8 6.7 6.0 6.2 6.4 6.6 6.8 6.8 6.8 6.5 6.5 6.9 7.0 7.2
5.2 5.1 5.2 5.2 5.2 5.1 4.9 4.7 4.6 4.7 4.7 4.6 4.5 4.4 4.6 4.5 4.7 4.8 4.8 5.0 5.0 5.2 5.5 5.7 5.5 5.6 5.8 5.8 5.8 6.1 6.0 6.1 6.2 6.5 6.9 6.8 6.7 6.1 5.8 6.2 7.2 7.0 6.6 6.7 6.7 6.5 6.5 6.2 6.4 6.4 6.7 6.7 6.5 6.8
5.0 5.1 5.2 5.3 5.2 4.9 4.8 4.8 4.6 4.6 4.7 4.6 4.6 4.6 4.6 4.7 4.9 5.1 5.1 5.1 5.2 5.3 5.5 5.7 5.8 5.8 5.8 6.0 6.1 6.3 6.4 6.5 6.4 6.6 6.8 6.5 6.3 6.1 6.0 7.0 7.1 6.4 6.2 6.6 6.4 6.3 6.3 6.1 6.1 6.1 6.2 7.1 6.4 6.5
5.1 5.2 5.1 5.1 4.9 4.7 4.6 4.6 4.6 4.7 4.7 4.7 4.7 4.9 4.9 5.1 5.2 5.3 5.2 5.3 5.2 5.5 5.5 5.6 5.7 5.8 6.0 6.2 6.4 6.5 6.4 6.4 6.3 6.4 6.3 6.1 6.0 6.1 6.2 6.2 6.2 6.1 6.2 6.4 6.4 6.3 6.2 6.0 6.0 5.8 6.0 6.5 6.9 6.4
4.9 5.0 4.9 4.8 4.7 4.4 4.4 4.4 4.4 4.5 4.7 4.9 4.9 5.0 5.2 5.3 5.3 5.3 5.5 5.5 5.6 5.6 5.5 5.4 5.5 5.8 6.3 6.2 6.2 6.0 6.0 6.1 6.2 6.3 6.1 6.0 5.7 5.7 6.1 6.4 6.5 6.6 6.7 6.6 6.7 6.6 6.1 6.1 5.9 5.7 5.7 5.8 6.2 6.5
4.8 4.8 4.7 4.6 4.4 4.3 4.3 4.4 4.4 4.6 5.0 5.0 5.2 5.2 5.3 5.3 5.3 5.3 5.3 5.2 5.5 5.6 5.4 5.6 5.7 6.1 6.0 6.2 6.0 5.8 6.0 6.2 6.0 6.1 6.0 5.7 5.9 6.0 6.0 6.1 6.3 6.3 6.4 6.4 6.4 6.6 6.3 6.2 6.1 6.0 6.1 6.4 6.2 6.4
4.5 4.5 4.5 4.4 4.2 4.3 4.4 4.5 4.7 5.0 5.0 5.2 5.3 5.5 5.5 5.4 5.2 5.3 5.3 5.4 5.5 5.6 5.7 5.8 5.8 5.9 6.1 5.9 5.7 5.7 5.7 5.9 6.1 6.0 6.0 5.9 5.7 5.8 5.8 5.9 5.9 5.9 5.9 6.0 5.9 6.2 6.3 6.4 6.4 6.3 6.1 6.0 6.1 6.3
4.4 4.3 4.4 4.3 4.4 4.6 4.7 4.9 4.9 5.1 5.2 5.4 5.6 5.6 5.5 5.5 5.4 5.5 5.4 5.5 5.6 5.6 5.7 5.6 5.7 5.8 5.8 5.5 5.6 5.6 5.7 6.1 6.0 6.0 5.8 5.6 5.6 5.4 5.5 5.7 5.6 5.5 5.8 5.8 5.6 5.5 5.9 6.3 6.4 6.5 6.1 6.0 6.1 6.1
4.5 4.5 4.6 4.6 4.7 4.8 4.9 5.0 5.1 5.3 5.6 5.6 5.7 5.7 5.6 5.4 5.4 5.5 5.5 5.6 5.6 5.6 5.8 5.8 5.8 5.7 5.8 5.6 5.6 5.7 6.0 5.9 6.0 5.8 5.4 5.6 5.6 5.4 5.5 5.5 5.7 5.6 5.6 5.5 5.5 5.7 6.0 6.1 6.2 6.2 6.1 5.9 6.1 6.3
4.6 4.7 4.7 4.9 4.9 5.1 5.1 5.1 5.2 5.5 5.6 5.5 5.7 5.9 5.6 5.3 5.4 5.4 5.5 5.4 5.4 5.7 5.5 5.6 5.8 5.9 5.7 5.8 5.8 5.9 6.0 5.9 5.8 5.3 5.2 5.5 5.4 5.4 5.6 5.5 5.8 5.7 5.3 5.4 5.5 5.4 5.8 6.1 6.3 6.2 6.2 6.2 5.9 6.2
4.8 4.9 4.9 5.0 5.1 5.1 5.2 5.3 5.6 5.7 5.7 5.7 5.9 5.8 5.5 5.5 5.4 5.4 5.5 5.5 5.5 5.6 5.6 5.5 5.6 5.5 5.7 5.8 5.7 6.0 5.8 5.6 5.5 5.4 5.5 5.5 5.6 5.5 5.7 5.9 5.4 5.5 5.7 5.8 5.6 5.7 6.0 6.2 6.1 6.1 6.3 5.8 5.9 5.8
4.9 4.9 5.0 5.1 5.1 5.2 5.5 5.7 5.7 5.7 5.9 6.0 6.0 5.8 5.7 5.6 5.5 5.4 5.2 5.2 5.4 5.6 5.6 5.5 5.6 5.6 5.4 5.7 5.7 5.5 5.6 5.8 5.4 5.3 5.5 5.5 5.5 5.7 5.7 5.6 5.6 6.0 5.6 5.6 5.8 6.0 6.3 6.2 5.8 6.1 6.2 6.0 5.8 5.7
5.0 5.1 5.1 5.3 5.2 5.5 5.7 5.8 5.8 5.7 6.1 5.8 5.6 5.5 5.2 5.3 5.0 5.2 5.2 5.3 5.4 5.5 5.6 5.6 5.5 5.5 5.4 5.6 5.6 5.6 5.5 5.5 5.3 5.3 5.4 5.4 5.5 5.7 5.7 5.8 6.0 6.1 6.1 5.9 6.0 6.0 5.9 5.6 5.4 5.9 5.9 6.0 5.8 5.7
5.3 5.3 5.3 5.4 5.5 5.6 5.6 5.9 5.8 5.7 5.8 5.5 5.4 5.3 5.2 5.1 5.1 5.1 5.0 5.1 5.3 5.5 5.6 5.6 5.6 5.6 5.4 5.4 5.5 5.5 5.5 5.5 5.8 5.6 5.4 5.5 5.3 5.7 6.0 6.0 6.1 6.0 6.2 6.2 6.0 5.9 5.8 6.3 6.4 6.2 6.1 5.9 5.8 5.8
5.6 5.6 5.4 5.6 5.6 5.6 5.6 5.6 5.6 5.5 5.6 5.4 5.5 5.5 5.3 5.6 5.4 5.1 5.2 5.4 5.6 5.7 5.7 5.7 5.9 5.8 5.6 5.3 5.5 5.6 5.5 5.5 5.7 5.9 5.6 5.6 5.6 6.0 6.1 6.0 5.9 6.1 6.2 6.1 5.8 5.8 5.7 6.0 6.3 6.3 6.0 5.8 5.8 5.5
5.7 5.6 5.7 5.7 5.7 5.6 5.5 5.4 5.3 5.3 5.3 5.4 5.3 5.4 5.6 5.5 5.6 5.7 5.6 5.6 5.7 5.7 5.7 5.9 5.9 5.7 5.7 5.8 5.9 5.9 5.7 5.6 5.8 6.1 6.2 6.2 6.2 6.2 6.2 6.1 6.3 6.2 6.0 5.9 5.6 5.7 5.8 5.9 6.0 6.2 6.1 5.7 5.4 5.5
5.7 5.8 5.8 5.8 5.7 5.6 5.4 5.1 5.1 5.0 5.1 5.2 5.2 5.3 5.5 5.7 5.8 5.8 5.8 5.8 5.9 5.9 5.8 5.7 5.8 5.6 5.7 5.7 5.9 6.0 6.1 6.1 5.9 6.1 6.4 6.5 6.5 6.2 6.1 6.1 6.2 6.4 6.3 6.0 5.9 5.7 5.8 5.8 6.1 6.1 6.1 6.1 6.1 5.9
5.8 5.8 5.8 5.7 5.4 5.3 5.1 5.1 5.1 4.8 4.7 5.0 5.2 5.3 5.7 5.8 5.8 5.7 5.8 5.9 5.8 5.8 5.8 5.6 5.5 5.6 5.7 5.8 5.8 5.9 6.0 6.0 5.9 5.8 6.1 6.2 6.2 6.1 6.4 6.5 6.1 6.2 6.2 6.2 6.0 5.8 5.9 5.8 6.0 6.2 6.2 6.3 6.3 6.2
5.8 5.7 5.5 5.3 5.1 5.0 5.1 5.2 4.9 4.9 5.0 4.9 5.1 5.7 5.8 5.8 5.9 5.8 5.9 5.9 5.8 5.9 5.7 5.5 5.5 5.7 5.6 5.5 5.6 5.7 5.8 5.9 5.9 5.9 5.9 6.0 6.1 6.0 6.2 6.2 6.3 6.2 5.9 6.0 6.2 6.0 5.8 5.9 5.9 6.0 5.8 5.8 5.9 5.8
5.7 5.7 5.5 5.3 5.1 5.1 5.0 5.4 5.1 5.0 5.0 5.3 5.4 5.9 5.9 5.8 5.7 5.8 6.1 6.0 6.0 6.3 6.3 6.1 5.8 5.6 5.7 5.8 5.9 5.9 6.0 6.1 6.1 6.0 5.9 6.0 5.9 6.0 6.0 5.8 5.8 5.9 5.8 5.8 5.8 5.8 5.8 5.6 5.5 5.6 5.8 6.0 5.9 5.8
5.6 5.6 5.4 5.3 5.1 5.1 5.1 5.3 5.3 5.4 5.3 5.5 5.7 5.9 5.8 5.8 5.8 5.8 5.9 5.9 5.9 5.9 6.0 6.0 5.8 5.7 5.8 5.8 6.2 6.1 6.2 6.1 6.1 6.0 5.8 5.7 5.8 5.9 5.9 5.8 5.8 5.9 6.0 5.8 5.7 5.7 5.9 5.9 5.7 5.8 5.9 5.8 5.6 5.7
5.6 5.7 5.6 5.3 4.9 5.0 5.0 4.9 4.9 5.0 5.2 5.3 5.6 5.9 6.0 6.1 6.3 5.8 5.9 5.8 5.9 5.9 5.8 5.8 5.8 5.7 6.0 6.1 6.2 6.3 6.1 6.2 6.0 5.9 5.8 5.7 5.8 5.9 5.9 5.8 5.6 5.6 5.8 5.7 5.8 5.9 5.9 5.9 5.9 6.0 6.1 5.8 5.6 5.5
5.7 5.6 5.5 5.0 4.9 4.8 4.9 4.8 4.8 4.9 5.2 5.5 5.6 5.8 6.0 6.2 6.2 5.8 5.9 6.0 6.0 6.0 6.0 5.7 5.4 5.8 5.8 6.1 6.3 6.3 6.2 6.3 6.3 6.2 6.1 6.0 5.8 5.7 5.5 5.6 5.6 5.5 5.5 5.8 5.8 5.8 5.7 5.8 5.9 5.8 5.8 5.8 5.9 6.0
5.8 5.4 5.2 5.1 4.7 4.7 4.8 4.9 4.9 5.0 5.1 5.3 5.6 5.8 6.0 5.9 5.9 6.0 6.0 5.9 5.9 6.3 6.3 5.7 5.5 5.6 5.7 6.1 6.0 6.1 6.2 6.2 6.1 6.0 6.0 6.1 6.1 6.0 5.8 5.8 5.6 5.7 6.2 6.2 6.0 5.7 5.6 5.6 5.6 5.5 5.4 5.5 5.5 5.6
5.7 5.4 5.2 5.1 4.7 4.7 4.9 4.9 5.2 5.1 5.0 5.0 5.1 5.6 5.8 6.1 6.2 6.1 5.9 5.9 6.4 6.5 6.2 6.0 5.9 5.8 5.7 5.8 5.9 6.0 5.9 6.0 5.9 5.7 5.8 5.7 5.7 5.9 6.0 6.1 6.1 6.1 6.2 6.3 6.3 6.2 6.1 5.9 5.7 5.8 5.8 5.9 6.0 6.1
5.2 5.0 5.1 5.1 5.1 4.9 4.8 4.7 4.8 5.1 5.2 5.3 5.4 5.7 6.2 6.6 6.5 6.2 6.6 6.6 6.4 6.6 6.6 6.1 5.9 5.8 5.7 5.6 5.6 5.7 5.6 5.6 5.8 5.9 6.1 6.1 6.2 6.2 6.3 6.4 6.4 6.3 6.2 6.1 6.0 5.9 5.9 6.0 6.1 6.3 6.3 6.4 6.4 6.5
5.0 5.0 5.1 5.2 5.1 5.1 5.1 5.2 5.5 5.8 5.6 5.6 5.6 5.7 6.3 6.2 6.3 6.5 6.5 6.2 5.8 5.8 5.9 5.8 5.7 5.8 5.6 5.5 5.5 5.6 5.9 6.1 6.3 6.5 6.5 6.5 6.4 6.4 6.4 6.3 6.3 6.3 6.2 6.1 6.1 6.2 6.3 6.3 6.3 6.4 6.5 6.5 6.5 6.5
5.2 5.3 5.4 5.1 5.3 5.3 5.3 5.5 5.8 5.8 5.8 5.9 5.9 5.9 5.9 6.1 6.0 5.9 5.9 6.1 6.1 6.0 6.0 6.0 5.9 6.0 5.8 5.8 6.0 6.2 6.4 6.4 6.4 6.4 6.4 6.3 6.2 6.1 6.1 6.2 6.2 6.2 6.2 6.2 6.3 6.4 6.4 6.4 6.5 6.5 6.6 6.5 6.5 6.3
Wind_Speed
15 15 15 14 12 9 9 10 11 12 13 14 15 15 16 17 18 8 3 3 2 2 6 5 5 5 1 2 1 5 6 3 4 5 2 2 1 2 3 3 4 2 1 4 2 2 5 6 2 4 3 6 3 4
14 14 13 14 9 8 8 9 10 11 12 13 14 14 15 16 16 13 2 5 0 3 6 4 9 12 8 10 2 2 3 2 3 2 1 1 2 2 1 2 3 3 4 3 5 4 3 2 1 4 5 2 3 4
13 13 13 11 8 8 8 9 10 11 12 13 13 14 15 15 14 10 3 3 2 2 5 3 4 4 3 12 11 4 3 5 2 2 2 2 2 2 2 2 2 5 5 3 4 3 4 5 6 4 5 4 7 4
12 13 13 7 7 7 8 10 11 13 13 13 13 14 15 15 15 13 2 1 1 2 3 6 3 9 4 5 8 17 4 1 2 2 1 3 2 3 3 4 5 5 6 3 5 7 7 2 2 3 7 5 6 3
12 12 7 6 6 8 9 11 12 13 13 14 14 15 15 16 17 14 5 4 4 1 3 6 14 4 6 6 9 14 15 4 1 0 2 3 2 1 2 1 3 5 8 4 4 6 3 6 3 2 5 6 7 3
11 7 6 6 8 9 11 12 13 13 14 15 15 15 15 15 15 3 3 2 6 1 2 5 4 7 10 9 6 9 10 5 3 3 3 3 5 4 3 3 5 3 3 6 4 4 5 6 7 4 6 9 5 7
8 7 6 7 8 10 11 13 14 15 16 16 17 17 16 13 1 1 3 2 4 4 2 4 5 5 7 5 4 2 2 4 4 3 3 4 3 4 2 11 9 10 10 10 8 4 5 6 4 1 4 8 11 6
6 6 7 8 9 10 12 14 16 18 19 20 19 18 17 14 8 4 3 15 8 1 1 3 4 5 4 4 4 2 3 3 1 2 2 2 1 2 4 7 8 8 8 8 6 5 5 1 5 7 5 6 11 8
6 6 7 9 9 11 12 14 17 20 23 23 22 12 2 2 0 3 5 16 6 1 2 2 2 4 4 3 3 4 2 2 2 1 2 2 0 4 5 4 6 5 4 7 8 5 5 6 7 8 6 8 8 6
7 7 8 8 9 11 13 15 18 22 27 16 3 2 2 0 1 8 2 0 1 1 1 3 1 4 1 2 3 3 2 2 3 3 2 0 2 4 4 4 5 6 5 5 4 7 3 6 5 5 9 8 5 6
7 8 7 8 9 11 13 15 18 23 9 3 4 2 2 9 1 0 2 2 2 2 3 4 4 3 2 2 3 2 3 2 2 4 0 2 2 4 7 7 7 7 5 6 6 7 7 8 10 7 7 7 5 6
7 7 7 8 9 11 12 13 14 5 0 2 3 4 3 2 2 1 2 2 3 3 3 3 4 5 4 1 0 3 3 3 4 3 1 1 3 7 10 12 10 7 7 6 6 7 7 7 6 6 7 8 6 5
7 7 8 9 11 12 12 12 11 10 8 1 0 2 2 1 3 2 2 1 2 2 3 2 4 2 4 3 2 2 3 5 3 1 2 2 5 9 10 12 11 10 6 6 7 5 7 6 4 6 7 7 7 7
6 7 9 12 14 15 13 10 8 6 2 1 1 3 3 2 4 4 3 2 4 3 4 2 2 1 2 2 1 2 4 2 2 3 1 3 10 11 7 6 6 11 11 9 5 8 10 8 5 4 6 7 7 7
6 8 11 13 5 6 7 8 5 1 0 2 1 3 5 4 3 4 3 3 3 1 1 2 2 1 2 3 2 3 3 2 5 2 3 7 12 11 11 10 7 8 9 9 10 8 7 5 5 5 4 4 6 6
6 9 3 6 10 10 8 2 1 1 2 2 3 3 3 1 4 3 2 3 1 1 1 3 2 3 2 3 3 3 7 2 3 5 7 10 12 12 10 12 9 7 9 8 9 7 2 5 3 2 3 6 4 6
4 3 2 6 12 13 4 1 1 3 3 3 4 3 3 4 5 4 2 3 2 2 2 1 2 2 1 2 2 1 3 3 6 9 9 10 10 12 11 10 9 8 6 6 4 4 5 5 3 6 6 4 6 5
2 1 4 10 12 3 0 2 1 3 5 4 3 3 3 4 4 4 3 2 2 3 3 3 2 2 2 3 2 3 5 6 6 7 9 10 8 9 8 8 7 6 6 7 4 3 4 7 7 4 6 6 4 5
4 7 11 9 5 1 1 2 3 3 5 3 4 3 3 4 4 4 2 3 3 2 3 2 2 3 3 3 6 8 8 7 7 7 6 8 9 9 9 9 3 5 6 5 6 4 3 3 3 5 4 4 4 3
12 17 17 8 2 1 3 3 2 3 3 3 2 4 3 4 4 3 3 2 2 2 2 3 4 4 4 3 5 6 5 4 3 4 5 6 3 11 9 8 4 4 4 5 3 1 4 4 4 3 4 3 1 3
4 3 4 7 1 2 2 3 3 3 3 2 3 1 4 2 4 3 4 2 2 3 3 4 4 4 5 5 4 4 5 3 4 4 4 5 5 5 6 4 3 3 3 4 5 6 5 1 3 3 1 2 2 1
3 4 2 2 1 3 3 4 3 3 2 3 3 2 3 3 3 3 2 2 3 3 3 2 2 3 3 5 5 4 6 4 5 4 6 5 4 5 4 4 2 3 3 2 3 5 6 3 3 3 1 3 4 4
7 1 1 3 3 2 6 1 2 3 3 3 3 3 3 3 3 1 1 1 2 2 2 2 3 2 3 5 5 5 4 4 4 3 4 4 3 2 2 3 1 1 3 3 2 4 5 8 5 4 2 2 2 2
4 2 2 3 4 4 2 3 3 3 2 2 2 4 3 3 3 1 2 3 2 3 2 3 1 2 4 5 4 4 5 3 3 4 3 3 3 4 3 4 4 3 3 3 3 2 3 4 5 4 5 4 4 2
1 3 3 4 3 2 3 3 4 2 3 2 3 4 3 1 1 2 2 2 3 3 3 3 2 2 1 2 4 4 5 2 3 4 3 2 2 2 4 3 3 3 2 4 4 5 4 4 5 4 5 5 6 6
4 4 7 4 3 4 4 2 1 1 2 2 4 4 2 1 1 2 2 2 2 2 3 2 3 4 5 3 4 4 4 2 3 2 3 2 2 1 1 3 4 4 4 3 3 5 6 6 6 8 8 8 9 8
3 5 4 4 3 2 2 2 1 1 2 3 3 3 3 1 0 2 1 3 3 3 2 2 2 3 5 6 4 4 4 3 3 4 4 4 2 3 1 2 2 2 2 3 5 5 5 6 7 7 8 9 8 7
4 2 5 3 2 3 3 2 2 4 4 3 2 2 3 3 1 2 4 3 4 2 3 4 3 4 4 4 4 4 4 4 4 1 2 4 3 3 5 3 4 5 4 4 4 5 6 6 7 8 8 7 6 6
4 3 1 4 4 4 4 4 3 3 2 3 3 3 4 4 2 3 3 3 2 1 4 6 9 3 3 3 4 5 5 6 5 11 9 4 4 5 6 4 4 5 7 10 15 11 12 10 7 7 7 6 4 5
5 4 2 3 2 4 4 4 4 4 3 3 3 2 3 3 3 2 3 4 5 8 7 5 3 2 3 2 1 3 4 5 5 4 4 3 3 5 4 4 5 5 5 6 7 6 10 8 7 6 7 5 5 5
2 2 3 4 5 5 7 4 1 2 2 2 2 3 7 4 4 4 6 4 3 3 3 3 4 4 3 4 4 3 4 5 5 6 4 2 3 4 5 5 4 4 5 6 6 7 8 7 6 7 7 7 8 7
3 6 4 4 4 2 2 1 2 5 4 3 3 2 2 2 3 2 1 3 3 3 4 4 4 3 3 5 4 5 7 3 4 4 6 4 5 5 5 5 5 5 6 6 6 6 8 7 6 6 6 7 7 7
3 3 4 2 2 2 2 2 2 3 2 2 3 3 3 2 1 1 2 3 2 3 3 4 5 5 6 7 6 5 6 4 5 7 8 9 9 8 5 5 5 5 7 5 5 6 8 9 6 7 7 7 7 7
Wind_Direction
324 325 326 328 329 336 341 349 350 346 344 346 348 351 354 357 358 5 281 352 86 258 273 234 202 193 179 127 190 303 343 350 351 41 33 295 271 312 360 353 330 230 226 213 273 206 276 13 265 173 222 306 321 274
320 322 323 325 325 332 337 341 339 336 336 340 344 347 348 349 354 2 319 319 303 196 249 233 241 247 206 232 123 272 233 254 243 54 344 307 320 17 163 311 355 316 217 258 192 235 279 312 356 286 220 158 322 290
314 315 314 313 318 327 331 331 327 328 331 335 338 341 341 343 346 354 285 297 360 308 296 343 251 281 206 214 193 184 257 214 268 182 194 235 269 157 156 185 9 338 300 270 353 266 250 308 308 352 339 345 287 269
305 311 310 302 313 319 323 322 323 324 327 330 330 331 333 334 335 336 289 240 123 273 299 284 315 295 246 253 205 212 237 23 100 72 197 260 242 170 218 202 179 179 250 258 272 279 286 312 252 322 326 330 314 23
303 309 297 299 310 316 318 319 320 320 322 325 325 325 325 326 329 319 235 239 250 19 298 287 310 257 268 220 229 218 227 225 211 222 173 235 249 162 251 28 231 185 208 174 241 246 200 255 268 248 319 304 297 246
302 289 291 301 309 313 313 315 316 317 318 319 318 318 319 321 336 353 29 94 34 355 3 313 291 295 302 303 243 210 215 210 224 196 217 234 250 140 249 246 257 220 232 213 249 238 222 265 279 263 231 256 263 242
283 280 288 298 305 310 313 316 315 315 315 314 313 311 307 306 351 179 203 250 20 14 358 296 309 283 298 312 325 339 150 210 177 216 225 207 231 172 199 263 264 277 252 258 237 223 258 202 239 28 309 284 289 254
265 272 286 295 305 309 314 316 316 316 314 312 309 303 299 291 280 284 251 251 203 169 309 294 281 324 349 317 315 13 303 345 284 248 334 192 37 166 250 252 247 248 265 277 285 222 248 79 283 275 259 270 269 234
256 269 283 296 302 310 315 318 320 319 315 312 309 303 43 68 181 251 93 129 157 150 275 271 278 282 345 286 272 324 30 321 299 267 261 118 258 227 244 297 308 327 307 299 312 292 268 245 262 273 261 279 251 245
255 269 286 294 305 312 318 324 327 325 322 325 51 36 357 241 256 127 264 9 358 279 165 246 246 267 37 344 301 338 346 283 318 260 330 132 256 279 277 281 264 282 275 301 316 308 289 264 235 236 248 251 225 236
253 275 285 296 305 313 322 328 332 334 357 28 11 302 298 322 40 259 258 225 148 254 210 234 214 250 268 226 246 212 296 288 317 275 36 267 332 300 305 294 285 281 302 285 243 255 268 257 265 259 230 233 191 203
261 270 277 289 297 308 319 326 337 2 147 220 260 288 304 4 39 348 270 273 209 253 197 214 245 207 280 153 64 308 283 348 258 303 282 295 299 297 327 333 302 278 286 270 264 270 242 264 259 212 192 197 203 220
261 268 282 290 299 304 312 317 327 320 310 38 297 273 33 320 32 229 308 203 303 263 257 295 315 306 335 24 288 353 301 243 328 315 310 311 330 339 341 334 336 333 316 306 295 285 272 283 335 165 177 193 201 184
260 275 286 294 297 297 301 309 303 346 28 287 267 280 185 226 241 210 228 218 238 212 280 265 271 351 300 318 287 294 253 310 260 5 352 302 333 324 320 308 350 329 321 338 323 295 298 297 302 116 164 190 174 200
267 286 298 299 323 327 304 305 299 47 236 258 226 243 225 238 269 279 261 308 284 222 315 334 21 59 286 302 323 290 285 307 21 312 278 315 318 322 321 331 321 341 337 336 328 325 333 34 76 95 160 207 235 196
291 306 261 288 313 317 316 329 133 152 268 243 242 278 270 8 310 318 310 289 245 93 83 60 31 350 1 317 282 323 328 12 312 277 297 314 320 318 320 326 328 313 291 295 278 256 180 104 74 309 102 118 202 197
288 246 350 349 336 323 227 173 183 225 243 237 252 231 239 245 241 255 235 248 193 72 22 47 338 251 238 262 269 349 302 300 265 284 292 292 294 299 306 309 324 330 318 311 315 325 333 319 76 93 105 101 125 139
239 261 350 348 344 322 26 180 237 262 247 247 251 254 224 228 251 266 248 238 122 171 137 236 130 85 353 292 346 267 259 264 257 268 279 289 295 296 300 304 324 336 333 338 349 345 358 358 343 49 109 92 72 64
245 294 304 321 342 360 295 227 162 255 247 247 256 251 227 247 246 241 251 253 214 201 130 156 167 186 212 201 246 266 256 261 272 289 294 300 295 288 312 328 341 344 349 354 356 341 344 86 86 46 37 46 68 53
276 278 274 269 191 28 293 262 203 249 268 253 273 275 243 240 249 249 254 254 192 173 179 198 209 216 203 227 230 262 264 255 229 287 298 302 307 331 335 318 349 323 344 342 328 17 5 6 356 58 68 39 183 150
319 267 72 137 139 201 244 289 278 236 266 267 266 278 263 307 256 235 245 179 146 208 225 222 228 252 261 254 254 255 272 234 257 229 259 288 290 277 294 320 20 349 7 357 359 355 38 24 272 299 186 244 209 201
270 353 109 165 252 207 242 224 221 264 268 253 315 221 271 279 263 244 174 134 208 239 205 209 239 245 279 283 294 272 272 288 271 276 271 258 289 321 346 344 42 9 345 343 328 328 332 354 357 13 346 309 2 12
309 136 274 199 230 229 262 112 221 245 254 265 327 291 262 273 245 6 194 101 301 293 258 264 261 257 267 305 317 322 310 328 335 333 323 311 266 276 345 353 5 52 335 317 347 321 324 317 36 38 22 6 13 19
258 243 229 223 198 255 293 258 220 250 247 248 251 269 274 242 321 342 209 172 241 291 308 297 248 344 1 7 358 314 306 284 324 330 318 334 346 357 336 329 311 307 252 277 328 359 12 21 17 22 22 27 30 42
236 241 140 264 293 261 240 245 216 218 250 244 256 266 257 19 314 288 12 59 316 314 319 9 63 53 353 285 296 298 299 272 331 299 292 324 12 338 346 325 344 341 303 84 49 49 20 20 45 59 48 42 36 32
225 225 182 224 229 188 228 278 48 39 320 284 260 281 5 24 285 59 294 322 264 284 311 350 356 342 327 284 285 302 290 296 311 288 276 325 14 254 1 18 355 352 21 52 60 47 39 31 44 50 39 35 46 68
246 255 233 230 258 284 291 306 288 153 240 264 267 313 309 249 185 246 219 212 231 244 253 280 324 299 294 298 293 279 274 277 235 255 294 306 321 198 197 188 256 248 328 72 63 70 68 55 54 50 59 51 44 53
246 276 203 262 254 214 230 235 240 260 223 235 5 263 280 200 197 206 213 260 221 246 293 293 306 318 310 308 304 307 311 315 312 64 73 51 45 35 24 29 44 62 65 56 85 77 88 104 99 88 73 63 45 32
244 255 158 265 256 242 217 209 231 240 206 190 205 244 273 272 229 227 256 227 190 237 308 318 310 335 319 321 22 1 358 14 78 89 76 39 6 349 350 354 28 55 84 76 50 66 87 89 84 82 83 80 63 54
249 177 213 268 244 235 229 200 220 237 230 212 205 297 301 283 255 239 244 259 254 257 260 245 255 267 275 326 72 14 16 17 35 69 83 51 326 303 318 25 51 69 78 83 81 67 53 67 56 55 57 51 48 51
247 152 217 215 235 241 243 249 273 316 284 265 255 243 279 274 284 248 245 237 227 197 186 215 219 222 214 188 163 109 45 5 30 42 51 31 341 8 34 49 44 64 73 76 76 74 74 66 62 61 57 55 46 51
203 206 201 232 261 251 120 132 274 266 264 245 250 221 240 247 255 276 177 132 145 155 180 146 109 84 74 88 87 87 103 95 52 37 47 50 41 39 53 54 50 58 71 75 73 77 75 73 65 58 53 48 40 36
219 218 220 254 283 241 216 197 255 276 244 242 235 210 227 238 1 167 217 209 164 152 157 146 128 126 130 121 128 125 110 105 91 69 70 68 69 62 57 50 52 58 69 75 75 80 79 77 66 53 45 45 34 25